[Iaude] MPEC R134: 2016 RX19 [a=2.71,e=0.60,i=32.4,H=20.0]

mpec at mpc.eps.harvard.edu mpec at mpc.eps.harvard.edu
Sat Sep 10 22:53:17 EDT 2016


M.P.E.C. 2016-R134                               Issued 2016 Sept. 11, 02:48 UT
 
     The Minor Planet Electronic Circulars contain information on unusual
         minor planets and routine data on comets.  They are published
    on behalf of Division F of the International Astronomical Union by the
          Minor Planet Center, Smithsonian Astrophysical Observatory,
                          Cambridge, MA 02138, U.S.A.

             Prepared using the Tamkin Foundation Computer Network

                              MPC at CFA.HARVARD.EDU
            URL http://www.minorplanetcenter.net/    ISSN 1523-6714


                                   2016 RX19
 
Observations:
     K16R19X  C2016 08 22.33098 19 36 43.103-46 38 03.81         18.4 iLER134F51
     K16R19X  C2016 08 22.34521 19 36 38.499-46 36 03.27         18.2 iLER134F51
     K16R19X  C2016 08 31.30785 19 01 29.748-20 12 36.22         18.4 wLER134F51
     K16R19X  C2016 08 31.31971 19 01 27.462-20 10 12.74         17.9 wLER134F51
     K16R19X* C2016 09 07.31910 18 45 13.38 +02 30 58.5          19.1 wLER134T05
     K16R19X  C2016 09 07.33455 18 45 11.51 +02 33 43.3          18.4 wLER134T05
     K16R19X  C2016 09 07.34282 18 45 10.49 +02 35 11.4          18.8 wLER134T05
     K16R19X  C2016 09 07.34482 18 45 10.19 +02 35 32.1          18.8 wLER134T05
     K16R19X  C2016 09 07.35813 18 45 08.64 +02 37 54.8          18.7 wLER134T05
     K16R19X 2C2016 09 08.24143918 43 39.505+05 12 07.98         18.3 RtER134568
     K16R19X 2C2016 09 08.24190318 43 39.449+05 12 12.82         18.3 RtER134568
     K16R19X 2C2016 09 08.24406718 43 39.198+05 12 35.05         18.4 RtER134568
     K16R19X 2C2016 09 08.24453918 43 39.142+05 12 39.89         18.3 RtER134568
     K16R19X KC2016 09 08.41987 18 43 21.39 +05 43 15.1          18.5 VqER134E23
     K16R19X KC2016 09 08.42682 18 43 20.66 +05 44 26.5          18.5 VqER134E23
     K16R19X KC2016 09 08.46172 18 43 16.58 +05 50 21.0          18.1 VqER134E23
     K16R19X KC2016 09 08.46288 18 43 16.42 +05 50 33.2          18.4 VqER134E23
     K16R19X  C2016 09 08.78778 18 42 46.09 +06 44 19.2          18.4 VSER134033
     K16R19X  C2016 09 08.79475 18 42 45.21 +06 45 31.3                qER134246
     K16R19X  C2016 09 08.79505 18 42 45.16 +06 45 32.3                qER134246
     K16R19X  C2016 09 08.79520 18 42 45.14 +06 45 34.6                qER134246
     K16R19X  C2016 09 08.79535 18 42 45.16 +06 45 36.2                qER134246
     K16R19X  C2016 09 08.79611 18 42 45.19 +06 45 42.8          18.8 VSER134033
     K16R19X  C2016 09 08.79847 18 42 44.93 +06 46 07.0          18.8 VSER134033
     K16R19X  C2016 09 08.80085 18 42 44.67 +06 46 30.7          18.0 VSER134033
     K16R19X KC2016 09 08.80203 18 42 44.61 +06 46 42.7          18.4 RqER134A17
     K16R19X KC2016 09 08.81734 18 42 42.97 +06 49 17.4          18.5 RqER134A17
     K16R19X KC2016 09 08.82132 18 42 42.58 +06 49 57.0          18.2 RqER134A17
     K16R19X KC2016 09 08.85493 18 42 38.94 +06 55 35.3                qER134204
     K16R19X KC2016 09 08.85621 18 42 38.70 +06 55 44.3          19.3 VSER134C43
     K16R19X KC2016 09 08.85851 18 42 38.49 +06 56 07.4          19.3 VSER134C43
     K16R19X KC2016 09 08.85896 18 42 38.49 +06 56 16.0                qER134204
     K16R19X KC2016 09 08.86080 18 42 38.06 +06 56 30.6          19.0 VSER134C43
     K16R19X KC2016 09 08.86366 18 42 37.98 +06 57 02.4          18.8 RqER134204
     K16R19X KC2016 09 08.87257 18 42 37.95 +06 58 43.6          19.6 RqER134J22
     K16R19X KC2016 09 08.87614 18 42 37.54 +06 59 19.1                qER134J22
     K16R19X KC2016 09 08.87969 18 42 37.15 +06 59 54.4          19.0 RqER134J22
     K16R19X  C2016 09 08.88289 18 42 35.99 +07 00 11.9          19.0 VSER134033
     K16R19X  C2016 09 08.88763 18 42 35.51 +07 00 58.7          19.0 VSER134033
     K16R19X  C2016 09 08.89021 18 42 35.22 +07 01 24.7          19.2 VSER134033
     K16R19X KC2016 09 08.90582 18 42 33.45 +07 04 04.1          18.7 RqER134104
     K16R19X KC2016 09 08.91136 18 42 32.86 +07 04 59.5          19.1 RqER134104
     K16R19X KC2016 09 08.91856 18 42 32.06 +07 06 11.2                qER134104
     K16R19X KC2016 09 08.93496 18 42 30.43 +07 08 53.1          19.5 VtER134595
     K16R19X KC2016 09 08.93906 18 42 30.01 +07 09 34.0          19.4 VtER134595
     K16R19X 1C2016 09 09.16104 18 42 11.11 +07 46 17.7                 ER134658
     K16R19X 1C2016 09 09.16294 18 42 10.90 +07 46 36.5                 ER134658
     K16R19X 1C2016 09 09.16484 18 42 10.68 +07 46 55.1                 ER134658
     K16R19X  C2016 09 09.52510 18 41 36.43 +08 45 47.3          19.2 VqER134900
     K16R19X  C2016 09 09.53979 18 41 34.91 +08 48 09.7          18.9 VqER134900
     K16R19X  C2016 09 09.54713 18 41 34.16 +08 49 19.8          19.9 VqER134900
     K16R19X KC2016 09 09.85227 18 41 07.97 +09 38 12.4          20.5 VqER134C77
     K16R19X KC2016 09 09.86037 18 41 07.08 +09 39 28.7          19.6 VqER134C77
     K16R19X KC2016 09 10.85087 18 39 43.97 +12 13 13.1                qER134J95
     K16R19X KC2016 09 10.85995 18 39 43.12 +12 14 35.7                qER134J95
     K16R19X KC2016 09 10.86581 18 39 42.59 +12 15 28.8          18.8 RqER134J95
 
Observer details:
033 Karl Schwarzschild Observatory, Tautenburg.  Observers B. Stecklum,
    C. Hoegner.  Measurer B. Stecklum.  1.34-m f/3 Schmidt + CCD.
104 San Marcello Pistoiese.  Observers P. Bacci, M. Maestripieri.  Measurers
    P. Bacci, L. Tesi, G. Fagioli.  0.60-m f/4 reflector + CCD.
204 Schiaparelli Observatory.  Observer L. Buzzi.  0.60-m f/4.64 reflector
    + CCD.
246 Klet Observatory-KLENOT.  Observers M. Tichy, J. Ticha.  Measurer M. Tichy.
    1.06-m KLENOT Telescope + CCD.
568 Mauna Kea.  Observers D. J. Tholen, Z. Claytor, Y. Ramanjooloo.  Measurer
    D. J. Tholen.  2.24-m University of Hawaii reflector.
595 Farra d'Isonzo.  Observers G. Ierman, E. Pettarin.  Measurer E. Pettarin.
    0.40-m f/4.5 reflector + CCD.
658 National Research Council of Canada.  Observer D. D. Balam.  1.82-m
    Plaskett telescope + CCD.
900 Moriyama.  Observer Y. Ikari.  0.26-m f/7.0 reflector + CCD.
A17 Guidestar Observatory, Weinheim.  Observers M. Emmerich, S. Melchert.
    0.36-m f/6 Schmidt-Cassegrain + CCD.
C43 Hoyerswerda.  Observer P. Lindner.  0.30-m f/6.3 Schmidt-Cassegrain + CCD.
C77 Bernezzo Observatory.  Observer A. Mantero.  0.25-m f/4 reflector + CCD.
E23 Arcadia.  Observer A. Hidas.  0.35-m f/1.9 reflector + CCD.
F51 Pan-STARRS 1, Haleakala.  Observers B. Gibson, T. Goggia, N. Primak,
    A. Schultz, M. Willman.  Measurers P. Veres, K. Chambers, S. Chastel,
    L. Denneau, H. Flewelling, M. Huber, E. Lilly, E. Magnier, R. Wainscoat,
    C. Waters, R. Weryk.  1.8-m Ritchey-Chretien + CCD.
J22 Tacande Observatory, La Palma.  Observer K. Hills.  0.5-m f/2.9 astrograph
    + CCD.
J95 Great Shefford.  Observer P. Birtwhistle.  0.40-m f/6.0 Schmidt-Cassegrain
    + CCD.
T05 ATLAS-HKO, Haleakala.  Observers L. Denneau, A. Heinze, H. Weiland,
    B. Stalder, J. Tonry, A. Sherstyuk.  Measurers L. Denneau, A. Heinze,
    J. Tonry.  0.5-m f/2.0 Schmidt + CCD.
 
Orbital elements:
2016 RX19                                                Earth MOID = 0.1109 AU
Epoch 2016 July 31.0 TT = JDT 2457600.5                 MPC
M 347.13207              (2000.0)            P               Q
n   0.22147105     Peri.   29.88508     +0.96134208     -0.06585569
a   2.7055656      Node   330.03406     -0.16890152     +0.62582849
e   0.6036716      Incl.   32.36309     +0.21747112     +0.77717549
P   4.45           H   20.0           G   0.15           U   6
Residuals in seconds of arc
160822 F51  0.1+  0.0     160908 246  0.5-  1.2-    160908 033  0.3+  0.1-
160822 F51  0.2+  0.1-    160908 246  0.6-  0.4-    160908 033  0.1-  0.1+
160831 F51  0.5-  0.0     160908 246  0.1-  0.3-    160908 104  0.0   0.2-
160831 F51  0.0   0.4+    160908 033  0.2+  0.2-    160908 104  0.2-  0.0
160907 T05  0.3+  0.4+    160908 033  0.1+  0.4+    160908 104  1.0-  0.0
160907 T05  0.7+  0.4+    160908 033  0.0   0.2+    160908 595  0.2-  0.2-
160907 T05  0.5+  0.3+    160908 A17  0.4-  0.5-    160908 595  0.3-  0.1-
160907 T05  0.3-  0.3-    160908 A17  0.4-  0.7+    160909 658  2.1+  1.1+
160907 T05  0.6+  0.5+    160908 A17  0.2+  0.4+    160909 658  1.9+  1.2+
160908 568  0.0   0.1-    160908 204  0.2+  0.1+    160909 658  1.6+  1.0+
160908 568  0.0   0.0     160908 C43  0.3-  0.3-    160909 900  0.4-  0.1+
160908 568  0.0   0.1-    160908 C43  0.2+  0.2-    160909 900  0.7-  0.3+
160908 568  0.0   0.1-    160908 204  0.0   0.5+    160909 900  0.7-  0.6-
160908 E23  0.1+  0.1+    160908 C43  2.6-  0.1+    160909 C77  1.5+  1.1+
160908 E23  1.0+  0.6+    160908 204  0.2-  0.0     160909 C77  0.3+  0.2+
160908 E23  1.0-  0.4-    160908 J22  0.4+  0.2+    160910 J95  0.3+  0.2+
160908 E23  1.5-  0.0     160908 J22  0.2+  0.0     160910 J95  0.0   0.4+
160908 033  0.3+  0.2-    160908 J22  0.2+  0.2-    160910 J95  0.1+  0.4+
160908 246  0.3-  0.8+    160908 033  0.1+  0.4+

Ephemeris:
2016 RX19                a,e,i = 2.71, 0.60, 32                  q = 1.0723
Date    TT    R. A. (2000) Decl.     Delta      r     Elong.  Phase     V
2016 08 12    20 41 08.3 -63 24 56   0.2872  1.2208   130.9    38.9    19.3
...
2016 08 27    19 16 04.3 -34 02 38   0.1895  1.1437   131.0    41.8    18.3
...
2016 09 04    18 51 56.4 -07 52 57   0.1831  1.1126   120.5    51.4    18.4
...
2016 09 10    18 40 55.9 +10 01 54   0.2036  1.0946   110.4    59.6    18.9
2016 09 11    18 39 32.5 +12 36 02   0.2087  1.0921   108.9    60.7    19.0
2016 09 12    18 38 15.6 +15 02 24   0.2142  1.0898   107.4    61.8    19.0
...
2016 09 18    18 32 30.9 +27 08 30   0.2530  1.0787   100.2    66.5    19.5
...
2016 09 26    18 28 53.5 +38 02 05   0.3141  1.0724    94.2    68.8    20.1
...
2016 10 11    18 31 19.9 +49 53 33   0.4333  1.0871    89.8    66.7    20.7

A. U. Tomatic                (C) Copyright 2016 MPC           M.P.E.C. 2016-R134




More information about the Iaude mailing list